User: anonymous   Login
Location: Byszew
(52.1813°N, 19.2693°E)
Time: 09:58:22
(UTC+00:00)
Language:

Cosmos 1943 Rocket - Orbit

View from above orbital plane
View from above orbital plane
View from above satellite
View from above satellite

Ground track
Ground track

The orbit data is extracted from the following two-line orbital elements,

1 19120U 88039B   21133.11564660 -.00000028  00000-0  93958-5 0  9990
2 19120  71.0133 191.9278 0021383 167.5564 192.6094 14.19222834708695
Epoch (UTC): 13 May 2021 02:46:31
Eccentricity: 0.0021383
inclination: 71.0133°
perigee height: 812 km
apogee height: 843 km
right ascension of ascending node: 191.9278°
argument of perigee: 167.5564°
revolutions per day: 14.19222834
mean anomaly at epoch: 192.6094°
orbit number at epoch: 70869

The dashed part of the orbit path shows where the satellite is in the earth's shadow,  

DLR